TITAN 3C TRANSTAGE DEB, 43449

Orbit data source: Space-Track

TITAN 3C TRANSTAGE DEB, 43449 is space debris in GEO originally from a launch on Sun, 09 Feb 1969 UTC launched from the Air Force Eastern Test Range (AFETR). Debris objects in space refer to the collection of defunct objects orbiting the Earth. Examples of debris include non-operational satellites, rocket bodies, and fragments generated from explosions, collisions, or faulty payload assembly.

Loading next visibility...
Identifier
43449, 1969-013J
Orbit
GEO
Country
Flag of USUS
Related business
Manufacturer
Martin Marietta
Mission
Spacecraft
Bus & Motor
Unknown
Mass
Unknown
Launch date (UTC)
1969-02-09 (58 years ago)
Launch vehicle
Unknown
Launch site
Air Force Eastern Test Range (AFETR)
Object type
Payload
Rocket body
Debris
Shape & HBR
Unknown shape, 1.1 m
Radar Cross Section
Medium (>0.1 m² and <1 m²)

Expand to show TLE details & history
Last TLE update: 1 month ago

TLE from 1 month ago
0 TITAN 3C TRANSTAGE DEB
1 43449U 69013J   26216.32290084 -.00000164  00000-0  00000-0 0  9990
2 43449   1.5540  72.8105 0148464  69.8901 291.9254  0.96604663 29300
Epoch: 2026-08-04T07:44Z
TLE epoch observation values (Epoch: 2026-08-04T07:44:58.632Z)
Latitude
-0.00001°
Longitude
3.89203°
Altitude
36,613.402 km
Speed
3.053 km/s
True Right ascension
04h 52m 07s
True Declination
0° 00' 00"
Sunlit
Object was in daylight at epoch
Visualization orbit readout
Latitude
Unknown
Longitude
Unknown
Altitude
Unknown
Speed
Unknown
Apparent Right ascension
Unknown
Apparent Declination
Unknown
Sunlit
N/A
Visualization observer readout
Local Sidereal Time
11:15:37
Azimuth
Unknown
Elevation
Unknown
Doppler factor
Unknown
Orbital elements
Apogee altitude
37,489.805 km
Perigee altitude
36,206.298 km
Semi-major axis
43,226.189 km
Eccentricity
0.01485
Inclination
1.554°
RAAN
72.8105°
Arg. of periapsis
69.8901°
True anomaly
290.33637°
Mean anomaly
291.9254°
Eccentric anomaly
291.13197°
Mean motion
0.2415 °/min
Orbital period
1,490.66 mins
BSTAR
0
Loading maneuver chart data...
Computing Atmospheric mass density...

Documentation

Showing up to 5 results
|